STARLINK-31287

decayed
NORAD ID: 58950 Int'l Des: 2024-027 Owner: SPXS Country: US Constellation: starlink
LEOCIRCULAR
Group

About STARLINK-31287

Description loading...

Altitude History

Altitude vs Time

uPlot chart will show altitude changes over time

Two-Line Element Set

1 58950U 24027V 24064.42137150 .83069799 12477-4 23961-2 0 9990
2 58950 53.1544 117.4851 0002550 154.2026 326.7997 16.45373278 4429
Epoch: Mar 4, 2024 • Age: 13516 hours

Current Status

Position data unavailable
Launch Date Feb 10, 2024
Age 1.6 years
Decay Date Mar 4, 2024
Type internet

Technical Details

Classification Payload
Mass 730.00 kg
Dry Mass 700.00 kg
Total Mass 730.00 kg
Length 0.30 m
Diameter 4.10 m
Span 29.00 m
Shape Box + pan
Manufacturer SPXS
Bus Type Starlink V2M
Phase Status Unknown Transfer Status
Owner/State SPXS/US

Large Constellations

Loading constellations...